Location: Zagreb
(45.8000°N, 16.0000°E)
Time: 02:33:42
(UTC+01:00)

Courier 1B - Pass Details

Date: 08 October 2020
Orbit: 963 x 1209 km, 28.3° (Epoch: 25 October)

Event Time Altitude Azimuth Distance (km) Brightness Sun altitude
Rises 19:37:29 0° 218° (SW) 3,964 11.2 -13.9°
Reaches altitude 10° 19:41:32 10° 198° (SSW) 3,051 10.2 -14.6°
Maximum altitude 19:45:43 16° 164° (SSE) 2,678 9.6 -15.3°
Enters shadow 19:49:00 12° 137° (SE) 2,953 9.6 -15.9°
